Location: Dunedin
(45.8670°S, 170.5000°E)
Time: 08:09:22
(UTC+13:00)

Cosmos 1151 Rocket - Pass Details

Date: 24 January 2019
Orbit: 592 x 616 km, 82.5° (Epoch: 16 October)

Event Time Altitude Azimuth Distance (km) Brightness Sun altitude
Rises 21:49:37 0° 6° (N) 2,831 6.1 -5.2°
Reaches altitude 10° 21:51:50 10° 11° (N) 1,940 5.2 -5.6°
Maximum altitude 21:55:59 51° 86° (E) 771 3.3 -6.1°
Drops below altitude 10° 22:00:14 10° 161° (SSE) 1,980 5.9 -6.7°
Sets 22:02:31 0° 166° (SSE) 2,896 6.8 -7.1°
